sat.trackr.live / text

‹ back to catalog

COSMOS 2522 (752)

NORAD 42939 · 2017-055A

PAYLOAD ACTIVE UNKNOWN

§ Identity

Operator
Country
CIS
Launch date
2017-09-22
Launch site
PLMSC
Launch vehicle
Mass (kg)
RCS (m²)

Purposes: nav

External: N2YO · Heavens-Above · Gunter

§ Orbital elements

Epoch: 2026-09-19T21:55:03.244800Z

Period
675.73 min
Inclination
64.0794°
Eccentricity
0.0009277
Mean motion
2.13102003 rev/d
Perigee alt
19,106.2 km
Apogee alt
19,153.6 km
Semi-major
25,508.0 km
B*
0.0000e+0
RAAN
188.6622°
Arg perigee
236.0970°
Mean anomaly
123.8276°
Rev number
6,999

§ Raw data

COSMOS 2522 (752)1 42939U 17055A   26262.91323200 -.00000013  00000+0  00000+0 0  99962 42939  64.0794 188.6622 0009277 236.0970 123.8276  2.13102003 69998

JSON: /api/v1/satellites/42939 · /tle

For live sub-satellite position, see the globe view (requires WebGL).

§ Visibility from observer

Set your observer location to see the next 7 days of passes ≥ 10°. The values pass through the URL so the page stays shareable.

No JS? Fill the form by hand. The geolocation button needs JavaScript.